Location: Jalan Sepang
(2.8072°N, 101.8021°E)
Time: 04:59:41
(UTC+00:00)

Cosmos 2369 Rocket - Pass Details

Date: 15 May 2026
Orbit: 829 x 850 km, 71.0° (Epoch: 7 June)

Event Time Altitude Azimuth Distance (km) Brightness Sun altitude
Rises 21:56:05 0° 175° (S) 3,391 5.2 -16.3°
Reaches altitude 10° 21:58:51 10° 163° (SSE) 2,451 4.6 -15.6°
Maximum altitude 22:03:37 29° 105° (ESE) 1,496 4.1 -14.5°
Drops below altitude 10° 22:08:21 10° 47° (NE) 2,433 5.7 -13.4°
Sets 22:11:04 0° 36° (NE) 3,361 6.3 -12.8°
